GFSSGP_prec_cthk_015.txt.gz
RH
60 69 66 66 63 62 70 67 63 70 67 73 73 70 78 78 74 74 76 80 80 82 81 75 71 66 66 66 64 58 51 50 43 45 46 41 38 37 38 38 38 39 39 41 43 44 45 51 56
62 70 65 61 51 54 63 56 52 54 64 72 71 69 70 73 70 67 70 73 76 74 68 63 63 62 63 59 54 52 49 51 47 46 44 42 40 41 40 40 38 39 41 44 44 45 45 49 54
60 65 68 62 47 43 44 45 43 46 59 67 67 65 65 64 61 59 59 62 66 63 59 57 59 60 58 55 52 52 48 48 44 47 48 44 42 43 44 42 40 42 43 43 45 45 46 49 53
56 65 56 45 45 37 34 35 39 41 54 59 60 63 59 61 59 55 56 59 58 56 55 54 56 56 53 50 50 50 48 48 47 49 47 47 46 49 49 47 49 48 44 45 46 45 45 47 51
58 48 41 45 47 43 37 34 32 39 43 49 51 57 59 60 59 55 54 55 55 56 57 57 55 51 46 48 48 50 49 48 47 48 49 50 50 51 50 49 49 51 52 51 48 46 43 43 49
53 45 46 49 50 47 40 35 33 35 41 44 46 46 57 58 56 53 52 51 53 53 54 55 53 47 42 47 49 48 48 49 52 52 50 49 52 53 55 54 54 54 54 53 53 53 51 47 45
54 44 49 47 51 48 41 40 38 34 37 42 40 44 52 54 52 51 51 50 50 51 52 52 50 46 45 46 48 47 46 47 48 50 51 52 56 60 63 66 67 66 61 56 53 57 57 60 59
49 48 49 50 55 55 47 47 40 36 33 34 37 41 45 46 48 50 51 49 48 49 51 54 52 46 44 44 44 44 43 44 44 46 50 55 60 63 61 62 65 71 73 69 67 68 68 65 64
49 50 50 52 54 54 49 49 43 33 32 33 35 35 36 42 45 47 47 47 47 48 46 46 46 47 45 42 40 41 42 44 44 44 47 52 57 63 55 55 64 59 60 62 64 65 65 63 59
50 52 50 49 48 48 46 54 42 34 33 36 33 35 38 41 42 42 44 44 43 43 46 46 46 45 44 44 42 43 44 45 45 46 49 51 55 59 68 59 60 60 60 65 66 63 61 61 63
45 45 47 47 47 43 48 54 44 34 35 29 31 33 36 39 41 40 41 41 41 45 45 47 48 47 47 47 47 45 44 44 45 47 50 50 52 52 55 58 56 57 62 67 70 74 71 65 63
46 45 42 46 46 48 49 46 40 36 31 31 28 32 38 41 42 43 41 44 41 41 42 44 46 46 47 47 47 45 47 48 49 50 51 53 52 52 53 56 57 56 58 61 61 64 71 72 69
40 43 42 43 43 43 39 39 36 35 33 33 32 35 38 40 41 42 42 43 41 41 42 41 43 43 45 47 49 51 51 52 54 54 53 53 52 54 53 54 57 59 61 61 61 64 61 60 58
40 40 42 46 44 41 42 40 33 37 35 33 33 34 37 39 40 41 43 42 40 41 43 45 44 48 46 46 49 49 51 54 54 54 54 51 50 52 52 53 56 56 57 59 59 61 59 55 57
40 44 44 52 54 48 49 45 31 31 32 35 34 32 33 36 38 38 37 38 40 39 40 42 42 43 41 43 49 51 50 51 51 58 56 50 53 49 60 59 61 56 57 58 61 58 54 51 49
42 47 49 47 48 49 48 54 39 33 31 31 33 33 32 32 33 33 34 36 37 37 36 40 42 42 40 44 47 48 49 49 50 52 52 52 55 62 58 66 59 61 63 58 54 50 46 41 36
42 47 48 49 47 50 51 53 48 46 42 33 30 30 29 31 33 31 31 32 34 35 34 35 36 38 38 43 45 47 44 42 43 47 48 51 57 56 59 62 57 53 50 46 44 42 36 30 26
41 48 45 41 45 50 55 52 47 45 42 28 28 28 29 29 28 29 31 33 34 34 34 33 34 36 40 43 42 45 42 39 39 40 39 40 44 46 49 53 56 42 35 29 24 21 19 21 21
39 41 43 42 45 48 51 50 47 45 38 31 26 28 28 27 27 28 30 33 35 34 32 32 36 36 37 37 33 33 32 30 30 33 37 37 37 42 40 38 35 30 26 19 15 14 15 19 22
34 35 50 46 47 50 54 52 48 48 40 39 34 35 35 35 28 29 30 36 35 30 31 31 32 34 33 27 25 23 22 20 21 25 27 29 30 30 32 34 26 24 23 20 16 18 21 20 25
30 31 40 43 48 53 56 57 54 50 46 47 46 45 43 36 30 26 27 28 33 28 30 29 28 29 26 23 23 21 20 20 18 20 20 21 31 35 35 28 26 23 17 19 18 18 22 25 26
31 31 34 40 47 50 48 62 55 51 47 44 45 46 51 48 43 32 26 27 29 25 27 26 27 27 25 26 24 22 20 22 20 19 19 22 22 21 24 22 18 17 19 20 19 21 22 24 26
28 31 32 35 44 49 49 51 45 49 48 40 37 44 50 51 51 42 28 26 25 23 24 26 25 26 28 29 27 26 22 22 24 23 21 21 22 22 19 15 17 19 21 21 20 21 21 23 26
29 29 33 32 34 47 42 42 44 41 36 33 37 38 45 49 45 45 42 37 33 27 23 28 26 27 27 28 30 29 26 24 23 24 27 27 21 18 18 16 18 20 22 20 19 19 22 26 27
27 29 31 33 42 46 34 45 36 30 31 29 30 32 38 44 42 41 43 44 35 31 28 31 32 30 28 28 29 29 27 28 27 26 27 29 27 23 17 18 20 23 23 22 20 22 26 29 31
26 29 31 29 34 31 30 44 27 25 26 30 33 32 36 39 40 40 41 44 41 45 41 45 44 34 33 34 31 34 37 34 30 26 26 29 29 28 26 22 23 22 22 22 22 23 25 29 32
24 27 24 26 29 29 30 26 22 25 26 30 32 33 34 37 37 36 37 45 54 57 54 47 43 43 36 34 36 43 50 52 46 34 31 29 31 33 33 26 24 24 22 21 24 24 28 31 33
23 23 25 27 27 28 26 23 26 23 28 29 33 32 34 36 35 35 37 39 42 47 45 47 52 46 40 41 36 42 47 56 51 43 35 33 35 37 37 29 28 26 22 22 25 30 33 34 36
24 23 23 23 26 27 25 24 23 24 26 30 33 31 32 33 32 33 36 37 34 35 38 41 43 40 44 44 42 40 53 55 50 45 40 34 34 33 36 35 33 27 24 26 31 33 33 34 33
20 20 20 21 22 26 24 24 24 27 29 32 31 33 32 32 34 35 37 40 39 34 36 35 41 42 47 51 51 41 51 61 55 50 43 39 34 34 39 39 35 30 26 28 30 31 35 38 41

GFSSGP_prec_cthk_021.txt.gz
RH
45 51 64 66 66 63 68 68 71 73 78 81 79 82 83 81 77 79 80 80 80 84 87 80 75 72 67 68 61 57 54 52 49 47 44 39 37 37 36 37 37 39 41 41 45 51 57 58 59
47 45 44 52 54 62 66 64 67 71 76 80 78 76 73 75 75 76 76 77 76 74 76 74 69 60 57 57 55 52 47 45 45 41 37 37 35 33 34 36 37 40 43 44 44 48 53 53 57
45 42 46 39 41 46 48 60 68 71 72 68 71 69 67 71 71 71 69 69 69 70 67 64 60 56 53 51 51 48 44 44 42 40 40 41 40 40 42 42 42 44 42 44 46 48 50 51 53
53 49 38 33 36 43 45 54 65 66 66 64 63 62 66 67 66 64 63 64 63 62 60 60 54 52 51 49 47 45 45 44 44 43 43 45 45 47 49 50 51 48 47 46 45 46 48 49 50
52 41 29 30 34 37 38 44 52 59 60 58 58 57 61 64 60 58 54 54 55 54 55 55 53 51 49 49 46 44 45 43 44 45 47 49 51 53 53 53 52 52 53 55 55 51 46 46 48
49 41 36 31 33 36 35 37 45 49 51 55 53 52 57 56 56 54 54 54 54 53 54 53 53 49 46 43 43 42 43 45 44 46 51 56 59 59 59 58 58 58 58 56 56 63 63 61 55
54 45 45 42 38 35 34 35 37 42 44 47 48 48 52 51 49 49 50 51 53 52 51 48 50 48 46 44 43 44 44 45 47 49 54 58 58 60 62 62 67 69 67 64 70 70 69 66 66
51 45 47 47 42 38 37 36 37 39 39 43 43 46 48 46 43 45 46 48 49 48 48 47 47 46 45 44 44 44 45 48 51 53 53 54 52 53 55 57 54 52 57 61 63 66 66 61 64
49 46 46 47 48 45 43 36 37 37 37 39 41 42 42 43 41 44 45 46 45 46 47 45 41 41 41 42 42 43 44 45 48 49 52 51 53 58 59 59 59 61 59 62 65 67 67 63 62
51 44 42 42 44 43 51 37 34 34 36 38 39 39 39 39 39 40 42 43 44 43 42 41 39 39 42 42 43 44 44 44 44 46 50 50 53 56 60 62 57 60 56 57 60 62 68 71 68
50 45 42 41 41 42 45 41 33 32 33 34 34 34 36 37 39 40 40 39 40 41 42 43 44 43 42 41 42 43 44 45 44 45 47 50 52 54 54 54 57 56 55 58 59 58 59 58 56
47 43 39 38 39 40 41 43 32 32 31 31 33 34 36 37 37 38 39 38 39 41 42 43 44 43 42 44 47 48 48 49 46 46 49 51 53 53 56 54 55 57 54 60 59 59 56 55 54
43 41 37 36 35 36 38 41 35 37 32 30 31 32 34 35 38 39 39 39 38 39 40 41 42 43 44 45 47 47 46 46 47 49 51 54 54 55 59 56 57 58 54 55 56 55 53 52 51
42 38 36 34 37 37 40 41 40 38 36 29 29 30 32 36 37 39 39 38 38 39 39 40 40 39 40 42 46 47 48 48 54 53 53 52 53 54 61 65 57 58 54 50 50 48 51 47 45
40 38 37 37 39 40 43 47 46 38 38 31 28 29 32 34 37 36 34 36 36 35 37 35 34 35 39 42 45 48 49 47 53 53 60 62 64 64 65 67 66 59 58 51 48 52 43 46 45
39 35 34 38 39 40 41 43 45 44 34 31 28 28 31 32 34 34 34 35 33 33 31 32 36 37 42 44 46 49 49 46 48 54 49 51 52 56 53 55 63 56 53 48 47 41 35 30 31
37 33 34 42 42 41 45 46 46 47 41 34 29 27 29 32 33 34 33 32 32 32 33 35 35 37 42 40 39 43 44 43 43 41 47 49 49 49 48 52 53 49 49 49 41 32 22 17 13
34 32 35 41 45 48 51 49 49 48 38 31 32 30 30 29 30 32 32 32 34 34 34 35 35 35 37 35 37 39 44 45 41 39 39 41 44 46 44 42 48 43 48 36 29 23 17 13 12
33 34 37 46 45 49 51 50 49 51 46 34 31 32 30 29 27 30 30 32 33 34 34 33 34 35 36 35 36 35 33 32 30 30 34 34 38 39 36 39 43 37 33 28 21 16 13 19 15
32 39 40 45 48 48 50 48 48 51 46 36 33 36 34 33 34 30 31 32 32 32 32 32 32 35 33 32 31 29 28 28 28 28 24 23 26 32 34 30 27 24 25 19 16 13 16 15 17
30 33 41 40 48 51 50 49 49 50 51 47 44 40 42 36 31 30 29 29 29 30 30 31 29 31 30 30 27 26 26 25 26 24 21 21 24 26 24 21 23 22 21 18 13 13 15 21 19
23 26 35 42 45 45 48 46 47 48 47 45 44 42 40 38 40 37 32 24 24 26 29 31 29 29 28 28 27 28 27 27 26 22 19 18 19 17 24 25 24 20 20 14 15 15 16 15 18
23 27 29 38 45 46 49 53 41 46 47 42 40 39 41 43 38 38 32 29 21 24 27 31 29 29 27 27 29 28 29 29 31 27 23 23 24 24 29 24 27 24 17 18 17 16 15 17 21
30 30 35 42 45 51 40 45 35 38 37 37 38 39 43 43 42 35 35 34 31 23 25 28 28 27 27 27 31 30 30 32 33 31 29 28 25 27 30 29 26 22 23 22 19 18 18 20 23
30 34 39 41 50 39 35 44 30 29 28 28 30 34 37 41 43 42 39 35 29 25 25 27 28 27 30 31 32 31 33 35 38 41 43 45 40 38 36 34 32 28 28 27 21 20 21 22 23
27 29 34 41 39 32 34 36 28 29 26 27 30 31 35 37 39 41 41 39 33 27 26 27 29 34 38 38 35 42 35 37 36 41 43 48 58 55 45 38 34 35 35 32 26 23 22 22 24
31 31 31 35 36 33 32 30 26 27 25 25 25 29 30 31 34 37 41 40 38 34 31 26 36 41 39 34 41 40 39 39 40 47 47 54 54 57 53 42 38 38 39 37 31 25 24 24 27
27 29 32 32 38 38 32 29 21 24 23 22 23 25 27 29 33 35 36 39 39 37 38 32 39 46 40 37 41 40 42 47 52 54 41 60 57 57 58 50 45 45 42 41 37 30 26 27 30
28 28 32 32 31 32 35 27 24 22 21 19 18 21 24 26 30 31 33 35 37 39 39 36 41 44 46 41 39 44 52 51 54 53 46 50 53 59 59 57 53 53 50 50 48 39 33 31 31
22 26 27 29 32 27 28 27 22 22 21 20 18 18 23 26 28 29 31 33 34 35 37 36 40 45 47 47 43 47 58 59 51 67 65 53 52 59 62 61 56 53 51 53 55 56 50 37 36

GFSSGP_prec_cthk_024.txt.gz
RH
57 63 73 79 84 69 72 74 73 76 78 78 78 78 83 80 82 82 91 91 88 86 78 74 75 75 66 61 61 60 56 52 48 45 43 43 41 38 38 37 37 40 43 48 54 58 59 59 67
45 48 59 69 67 61 62 65 70 73 77 78 79 76 75 77 79 78 79 83 84 81 79 71 71 65 59 56 53 49 49 48 44 40 37 36 35 33 36 37 39 42 44 44 49 55 56 57 63
43 43 51 49 53 51 55 64 67 72 75 72 67 67 70 76 73 74 73 74 75 75 71 62 62 59 56 50 48 45 43 41 39 37 35 36 36 36 39 40 41 42 44 45 47 51 53 52 57
45 40 41 40 40 46 54 61 65 65 64 65 63 66 67 71 70 68 67 69 68 65 64 56 52 49 48 47 45 41 41 40 40 39 40 41 43 43 45 45 45 45 45 45 47 48 49 49 50
46 36 37 32 34 37 49 60 62 62 61 58 58 59 65 66 62 63 63 64 62 62 57 53 51 48 45 46 42 41 40 39 40 42 44 46 48 50 50 50 50 51 52 53 50 49 49 49 51
50 44 35 28 29 32 36 43 51 55 56 54 54 59 64 60 58 57 57 57 59 59 57 54 52 48 46 43 40 40 39 40 43 46 50 54 55 56 55 57 59 60 58 57 61 67 65 60 57
50 50 39 33 33 31 33 38 42 45 49 51 49 54 58 57 57 58 58 57 57 59 57 52 50 46 43 42 39 40 41 43 46 50 53 53 56 56 55 57 61 63 65 64 67 67 62 61 62
48 46 47 37 38 34 29 35 36 40 43 44 47 49 51 51 53 56 57 56 57 55 53 55 50 48 46 41 40 41 43 45 47 49 50 48 47 49 53 58 56 52 54 58 61 63 60 55 60
47 48 47 43 39 42 33 31 35 37 37 41 44 44 47 46 48 50 52 53 53 51 54 54 54 48 48 46 43 41 43 44 46 48 48 49 58 60 62 58 56 57 57 60 62 66 68 67 61
47 50 46 44 42 43 40 30 33 36 35 37 42 43 44 45 45 45 46 49 51 51 51 49 46 46 47 48 44 45 45 46 47 50 51 53 57 56 58 61 59 52 51 58 58 57 59 65 70
51 52 40 41 43 42 44 35 28 32 34 35 37 38 41 43 43 44 45 47 47 47 44 44 46 47 48 48 47 49 49 49 46 43 45 52 52 55 55 56 59 60 59 63 65 62 65 60 60
48 42 37 40 38 38 39 38 30 29 31 32 34 35 38 40 39 41 41 42 43 46 49 49 46 43 44 50 48 52 52 49 50 48 45 50 50 54 56 59 60 56 61 55 58 60 55 56 55
45 37 37 35 34 37 38 39 33 30 31 30 33 33 37 37 39 39 41 42 44 45 46 45 45 46 47 48 50 50 51 50 52 48 47 49 52 56 57 60 60 56 56 59 54 55 55 53 53
42 38 38 34 31 35 37 38 33 33 30 31 32 32 34 36 39 41 41 41 42 42 43 43 44 44 44 46 46 48 49 52 51 53 54 53 51 57 76 65 65 64 59 57 57 53 54 52 52
39 39 36 32 31 39 41 43 41 34 32 31 31 33 35 35 37 37 38 39 41 41 43 41 40 40 42 45 44 46 47 48 54 54 53 55 55 54 69 65 64 59 58 51 58 53 50 44 43
40 38 38 33 32 37 41 44 38 38 31 33 31 32 32 34 37 36 37 38 40 40 38 36 37 38 40 42 41 43 47 48 48 52 57 58 56 61 57 65 59 59 54 60 53 50 44 37 30
38 40 39 32 34 39 42 48 46 40 36 32 32 29 30 33 32 32 32 35 36 34 33 33 34 36 40 42 43 45 48 52 46 54 48 50 51 50 54 55 55 51 49 51 45 39 31 26 22
38 36 36 33 33 38 42 48 44 42 38 32 31 29 28 30 28 30 31 33 34 36 32 35 36 37 40 40 37 44 46 47 45 43 48 47 47 43 42 43 44 48 48 50 39 30 23 17 23
37 34 35 39 43 43 42 43 44 42 41 35 32 29 26 27 29 32 30 32 34 36 35 34 34 34 36 37 38 38 38 46 43 39 39 38 38 36 39 43 43 46 44 35 28 25 21 19 24
32 34 34 41 44 44 45 42 42 42 41 36 32 31 31 30 32 31 33 33 33 34 34 34 33 35 34 37 35 38 39 38 37 35 30 28 25 28 33 35 40 36 28 24 23 20 18 23 23
32 33 35 41 43 42 44 42 40 39 39 40 38 34 38 38 35 33 32 32 33 32 31 32 30 31 33 33 35 33 32 32 31 29 28 27 22 28 37 33 29 22 23 30 23 21 19 24 23
30 29 35 43 48 46 42 41 40 41 39 41 42 43 46 42 40 47 40 33 31 30 30 30 28 29 29 29 32 31 32 34 34 31 28 26 21 24 23 19 25 29 26 24 20 19 18 18 26
24 30 35 41 45 46 51 48 42 40 38 37 40 41 40 44 42 39 37 35 36 28 27 25 28 26 27 28 28 31 30 33 34 34 30 23 25 24 26 28 23 24 29 24 16 16 17 21 25
24 31 32 38 41 44 41 47 41 41 34 34 38 42 41 42 43 42 37 35 37 32 24 23 25 24 26 27 25 28 31 33 36 36 37 36 38 38 33 34 34 33 29 26 25 19 16 16 20
25 29 38 41 42 41 40 42 34 38 35 34 35 37 41 43 41 43 38 34 33 30 23 22 24 25 28 29 29 28 28 33 37 43 45 48 47 46 45 46 44 39 32 30 30 27 27 23 27
22 25 33 38 36 38 40 37 29 31 33 33 31 30 36 37 37 38 38 38 35 33 27 26 26 25 28 33 34 30 34 40 39 40 45 42 46 51 51 51 49 45 37 35 33 35 33 30 28
20 27 27 30 31 32 31 33 28 28 32 27 25 27 28 30 32 37 39 38 39 35 30 24 25 25 30 38 35 37 38 40 49 46 43 45 43 45 55 52 52 53 46 43 40 40 39 34 29
19 22 31 30 34 34 30 31 28 28 27 25 26 23 25 27 31 34 37 37 39 38 36 29 25 27 35 37 32 37 41 44 50 55 49 50 48 51 53 55 54 54 55 48 47 50 51 49 37
16 25 28 31 30 31 32 27 25 24 26 25 24 24 23 25 27 31 34 36 39 38 39 39 31 30 33 39 40 40 39 43 46 59 56 50 47 55 57 60 64 60 60 57 51 52 56 61 56
14 20 27 31 34 32 30 27 27 26 23 23 23 25 23 22 26 29 34 35 35 37 39 40 38 31 33 42 44 44 40 44 42 49 57 55 62 57 58 67 74 69 73 61 60 60 61 66 61

GFSSGP_prec_cthk_030.txt.gz
RH
71 81 88 93 93 91 80 74 72 75 71 75 80 86 86 86 78 85 87 88 87 87 83 79 74 63 60 58 54 51 46 45 45 44 43 39 37 34 35 39 43 48 52 53 55 56 59 62 70
56 80 90 92 88 90 71 72 74 69 68 73 76 82 74 76 74 80 85 81 79 77 75 69 64 58 54 53 48 47 45 43 42 42 39 36 35 35 37 40 40 43 48 49 50 51 53 57 61
67 76 91 89 71 85 69 70 69 68 70 76 79 78 68 70 70 69 71 76 76 70 66 58 55 54 54 51 48 45 41 39 39 36 33 32 34 35 38 40 40 41 42 45 47 47 48 51 56
69 88 93 76 65 65 59 70 63 67 70 63 64 71 67 69 66 65 67 70 63 61 56 55 53 53 52 49 45 42 39 38 34 33 34 37 38 40 41 40 40 41 43 42 45 49 47 48 51
73 69 73 47 53 56 57 61 60 62 67 64 60 68 65 64 63 66 62 62 62 62 54 51 50 47 43 39 39 38 38 37 38 40 41 44 45 46 46 46 47 50 49 50 53 50 50 50 49
66 73 64 39 36 52 53 58 58 66 63 59 60 61 68 56 60 61 59 56 54 55 54 49 45 42 40 38 37 36 37 39 41 44 47 49 50 52 55 57 58 58 59 59 58 54 55 50 50
63 67 62 34 36 41 42 56 62 54 55 55 56 61 58 64 55 55 60 52 52 51 46 44 42 40 37 36 37 38 40 43 46 50 52 52 50 49 52 50 49 55 55 56 55 54 52 53 52
64 61 50 44 39 34 32 55 62 47 68 51 51 59 61 58 51 52 54 55 57 51 43 41 41 37 34 36 37 39 42 43 44 44 44 44 48 52 60 59 53 51 53 55 57 57 56 56 50
71 74 54 48 42 36 33 38 49 65 46 73 57 63 53 51 62 53 54 64 55 49 48 42 38 37 37 36 36 38 40 41 42 43 44 50 65 59 63 55 51 47 48 53 47 48 59 60 66
74 67 54 58 46 35 36 37 39 38 39 53 53 54 49 53 50 49 51 48 47 47 50 44 42 38 37 39 36 38 40 39 42 43 45 50 66 56 50 55 51 63 53 62 59 56 65 59 64
69 60 51 49 48 37 34 39 33 40 41 41 50 46 44 49 53 55 48 40 47 47 48 41 39 36 40 43 39 38 39 40 43 48 46 49 67 56 65 68 71 65 63 57 62 56 63 64 69
66 57 52 47 40 43 39 35 43 38 47 41 42 41 43 44 46 46 52 46 45 41 38 42 43 39 51 53 46 43 46 46 51 51 45 47 48 54 55 54 56 63 68 70 65 66 51 46 44
52 55 43 40 35 43 45 38 33 43 47 41 38 39 40 41 40 45 49 45 42 36 48 53 44 41 47 54 41 52 56 53 50 49 46 43 53 73 66 66 55 55 54 60 62 61 45 44 44
36 47 44 39 40 46 49 45 32 36 39 40 35 36 38 39 40 41 44 40 40 40 42 44 42 39 38 41 45 47 50 62 56 59 57 49 53 69 74 63 58 63 58 64 56 50 46 46 45
33 43 37 37 37 43 43 51 34 37 36 39 33 34 35 36 38 38 39 40 39 39 41 43 41 38 37 36 41 39 45 48 53 53 51 53 50 64 62 64 57 60 54 62 52 64 49 42 39
27 35 42 39 36 41 33 59 32 38 32 39 32 31 33 33 35 37 38 38 38 40 42 42 42 39 38 38 38 37 39 48 49 52 62 55 60 55 57 56 53 54 53 57 71 48 47 41 35
26 34 36 41 40 41 36 50 54 44 31 35 32 28 30 32 34 36 36 35 37 38 39 37 38 40 37 36 36 38 41 45 49 58 56 50 48 48 44 46 48 47 46 48 64 50 49 31 19
25 32 34 37 39 38 44 41 43 39 42 35 34 30 28 29 31 33 34 34 36 36 37 34 33 36 38 37 33 38 43 52 47 47 52 56 49 59 39 43 42 49 47 46 57 47 40 19 23
27 31 31 41 48 40 46 47 64 45 45 40 34 30 29 28 28 31 31 35 34 34 34 31 31 32 35 36 33 32 37 40 44 40 42 42 62 44 40 38 42 47 47 44 42 34 16 20 25
24 32 34 36 41 43 42 46 47 56 42 36 34 29 26 28 30 27 30 31 29 30 30 28 27 29 29 31 31 32 32 36 34 37 38 35 33 40 36 28 43 39 41 36 33 28 14 24 30
23 31 33 39 41 38 39 40 42 51 46 38 31 33 28 28 30 31 29 28 27 27 27 25 25 26 25 28 30 34 40 38 48 43 49 40 30 29 30 34 34 36 37 31 31 26 17 20 25
20 23 31 35 42 40 37 39 37 44 44 38 29 30 32 31 31 33 32 32 29 27 28 26 25 24 24 26 34 30 31 32 34 32 33 34 31 26 28 28 33 35 32 35 37 30 22 19 26
17 22 28 30 37 44 45 46 41 40 46 48 37 30 30 33 34 35 37 40 38 35 30 29 26 26 25 25 29 34 33 28 35 34 34 32 27 23 37 40 37 38 47 43 43 37 30 29 28
16 23 25 27 29 38 45 40 39 40 35 44 47 35 32 33 34 35 37 39 42 43 42 36 31 27 26 25 25 31 37 33 38 38 34 33 32 31 39 45 45 43 41 48 45 44 38 37 34
15 24 27 28 28 29 33 47 39 42 40 38 45 46 41 33 33 35 35 37 38 40 39 39 35 32 27 25 22 26 31 37 35 37 36 37 36 37 42 45 50 54 54 58 56 58 60 43 40
12 19 24 32 29 28 24 29 37 35 39 41 45 46 52 49 41 38 35 36 36 37 38 36 34 31 29 24 22 26 28 35 30 36 37 46 50 49 51 54 52 51 54 56 57 64 63 58 49
11 17 17 23 24 26 25 25 24 30 39 47 45 42 42 49 54 43 35 32 34 36 37 37 36 32 30 27 23 25 29 32 30 31 46 53 53 54 54 53 54 51 53 54 58 61 64 66 60
10 12 16 19 28 29 24 24 26 31 32 46 42 40 35 35 50 49 36 31 31 34 36 39 36 33 31 27 23 23 28 31 27 32 37 45 52 50 53 54 52 49 50 55 59 59 58 65 65
13 11 14 17 20 24 26 25 22 26 33 35 36 35 37 33 33 38 37 31 28 31 32 36 37 35 33 30 23 24 30 30 30 36 39 43 47 52 48 51 51 48 52 54 59 58 57 66 65
13 12 10 15 21 20 21 22 21 26 28 32 32 33 33 25 25 30 36 38 34 30 32 33 37 34 33 31 25 25 26 31 36 38 40 42 45 46 50 51 51 49 48 48 56 57 60 62 61

GFSSGP_prec_cthk_033.txt.gz
RH
77 82 82 88 90 94 80 76 81 74 75 78 79 78 78 80 76 84 87 84 82 80 80 75 68 65 62 60 51 46 44 44 42 42 37 33 30 34 38 41 43 46 48 51 51 53 57 62 67
76 82 83 86 91 91 76 71 70 70 75 74 73 71 72 77 78 81 84 80 76 73 70 66 60 55 53 51 45 43 43 41 39 36 33 31 31 34 37 37 41 45 47 47 47 48 52 58 67
74 85 80 86 82 86 76 70 75 74 70 69 71 66 66 72 74 74 74 72 67 64 61 56 52 50 45 44 42 40 38 38 36 32 30 31 33 36 37 38 39 41 43 44 48 47 48 53 61
80 83 86 90 71 66 64 72 70 65 66 59 58 61 63 66 67 65 64 63 60 57 54 50 49 48 44 41 38 36 34 33 31 30 32 35 37 39 40 41 42 44 44 50 53 53 52 55 55
88 88 88 73 62 55 61 61 67 66 63 58 53 62 60 60 60 60 60 56 51 50 48 47 50 48 42 38 36 35 34 34 34 37 40 42 44 45 47 48 52 57 58 57 52 51 50 53 61
73 66 75 75 60 56 51 54 62 68 61 56 54 55 59 58 57 54 52 51 48 46 44 45 45 41 40 37 37 36 35 36 39 42 45 49 52 58 59 57 58 57 59 60 55 57 59 60 61
82 91 73 61 56 56 52 56 64 63 52 51 49 53 56 57 53 51 48 48 47 43 42 42 39 35 35 34 35 36 39 42 45 48 50 49 49 52 54 51 55 56 57 57 58 57 61 62 62
96 92 75 55 50 54 51 45 55 58 55 48 43 50 54 52 49 50 49 49 43 42 40 39 35 33 33 35 37 39 41 43 44 44 44 47 55 58 58 55 50 53 58 57 56 61 62 66 66
80 82 75 57 48 50 50 45 46 57 54 50 58 55 43 44 47 50 56 54 46 40 38 36 32 31 33 34 36 38 40 40 40 42 46 62 59 55 57 57 55 51 53 52 49 53 56 55 61
68 77 72 57 51 53 53 45 41 52 53 54 51 47 41 48 44 46 58 53 46 42 35 32 32 31 32 34 36 37 37 39 41 42 43 54 57 49 58 63 55 57 49 52 53 51 59 64 61
73 68 61 59 53 48 47 46 40 40 44 42 43 47 43 49 46 41 44 47 42 39 37 32 30 30 31 32 34 34 36 39 41 44 44 48 56 52 74 76 57 56 58 58 52 51 55 50 48
58 52 52 57 54 53 45 40 36 38 46 43 38 44 39 43 42 40 39 42 38 36 33 32 31 33 32 35 38 36 40 43 42 45 49 44 48 51 54 52 56 60 60 59 66 60 47 48 45
48 45 47 47 48 54 48 48 41 39 48 46 43 42 40 41 39 41 41 38 35 33 33 35 34 36 39 45 43 44 45 47 47 43 45 48 48 67 58 62 56 57 58 59 57 58 49 46 46
42 44 45 43 43 41 50 44 45 46 42 43 34 35 38 43 40 41 42 37 34 34 38 43 40 39 40 47 41 48 51 46 49 49 52 52 52 57 59 61 52 52 52 56 55 55 54 48 46
33 40 43 45 41 47 51 47 48 48 38 38 29 31 33 37 39 41 36 33 34 34 40 43 41 41 35 37 38 40 46 47 54 51 50 51 53 62 54 60 54 54 53 59 58 55 45 42 37
28 31 32 45 42 44 41 51 39 47 39 41 33 31 33 35 36 36 37 31 33 33 35 39 39 37 35 33 35 35 41 43 46 50 53 56 58 54 56 49 46 47 50 48 51 54 45 40 29
26 27 31 40 45 44 48 48 37 44 43 39 35 29 34 35 36 35 33 32 32 34 35 36 36 35 32 31 30 32 33 35 44 43 49 51 47 45 46 41 41 45 45 44 43 48 43 35 19
25 24 28 38 40 44 47 46 43 42 42 34 35 30 31 33 34 33 32 31 32 33 33 33 33 30 31 33 31 32 38 38 39 42 57 51 54 48 52 40 38 43 40 42 42 41 35 25 15
22 24 27 36 43 47 51 52 46 41 40 29 30 28 26 28 30 33 33 32 31 31 30 29 29 28 29 32 32 30 31 36 44 38 37 37 39 53 43 36 36 41 40 40 36 31 20 15 19
21 23 25 37 40 42 47 49 44 35 35 29 29 31 24 24 26 29 31 31 27 27 26 27 26 27 26 29 31 31 27 31 30 35 36 34 37 33 31 29 31 33 37 30 29 25 19 26 24
19 21 24 38 49 50 51 51 50 41 37 34 31 31 24 22 22 24 26 26 26 25 24 24 24 25 25 25 28 30 30 32 35 35 39 48 35 33 27 28 30 30 30 34 33 32 27 27 27
15 21 26 37 42 51 50 56 55 49 44 43 36 36 30 22 26 25 24 25 24 23 23 23 24 25 25 25 26 27 26 35 32 38 36 28 28 26 26 27 31 36 42 42 41 43 34 38 38
10 22 25 32 38 45 48 60 55 50 53 51 48 44 37 24 25 27 28 27 27 28 25 23 24 24 24 23 22 23 27 29 31 34 32 29 30 30 35 41 43 47 50 50 52 51 50 52 53
8 16 24 29 32 48 37 59 52 50 50 61 52 45 41 32 22 28 29 30 33 34 36 32 27 27 25 23 21 21 24 29 31 30 32 29 31 33 42 46 49 50 49 53 53 53 50 53 55
7 12 23 30 32 36 38 43 39 38 37 43 46 46 44 40 28 32 33 35 36 36 35 36 32 29 28 27 19 19 23 31 30 33 34 29 38 41 45 46 51 47 49 51 53 53 53 50 53
9 10 16 30 31 29 30 45 34 31 32 39 45 48 50 47 38 38 37 36 35 34 34 32 32 30 28 28 22 18 21 28 36 33 31 41 46 49 48 48 47 48 51 50 49 53 54 53 53
11 9 11 19 24 29 26 27 28 28 37 38 37 42 44 42 46 48 46 37 34 34 32 32 32 31 30 27 25 22 20 27 32 29 33 46 48 49 49 51 51 48 45 48 49 54 55 54 56
9 10 12 15 20 25 21 25 28 32 36 36 36 34 38 42 44 56 53 44 34 29 30 31 33 33 31 31 27 23 20 26 29 28 35 43 49 50 54 53 48 50 47 45 45 50 53 52 55
13 11 12 14 16 21 26 21 26 30 33 35 33 34 35 38 39 42 39 37 34 29 29 31 31 36 35 33 29 23 22 27 27 28 33 40 47 44 47 48 48 52 54 50 46 50 51 54 53
13 11 11 13 18 20 20 17 23 24 29 30 29 33 34 34 32 45 42 37 34 32 29 31 32 34 35 32 30 24 22 25 25 31 37 38 38 40 46 50 51 53 54 50 46 49 50 51 55

GFSSGP_prec_cthk_036.txt.gz
RH
82 84 87 84 87 90 87 84 75 76 75 74 74 73 78 77 75 81 84 84 83 83 84 76 74 68 58 53 48 44 43 44 44 39 32 31 37 41 42 45 49 50 50 51 53 57 62 69 69
79 84 80 88 93 87 79 74 74 74 73 72 68 70 71 76 74 78 79 80 76 75 74 69 67 61 53 46 42 43 43 42 39 35 31 33 36 38 40 44 46 47 47 48 49 52 56 67 72
76 81 78 86 84 84 73 71 70 70 67 68 65 64 68 75 73 72 70 70 70 69 65 61 56 52 46 41 40 41 40 39 35 31 32 34 36 36 38 41 43 44 48 52 49 50 52 58 69
74 78 80 81 75 73 75 74 69 63 59 60 58 63 68 72 72 67 63 63 63 60 56 51 46 44 43 40 38 38 37 34 30 31 34 37 37 39 41 43 44 47 50 49 50 50 52 56 57
82 77 91 79 65 62 63 67 70 63 57 55 53 59 61 65 64 62 58 58 57 53 47 45 41 39 38 36 35 34 33 32 33 37 41 43 44 45 48 52 56 57 55 53 53 53 54 54 56
89 91 95 83 72 65 68 55 67 65 54 53 53 52 59 58 59 58 54 52 50 45 44 45 41 37 34 34 34 35 37 37 38 42 46 49 57 57 57 57 56 58 59 56 57 57 57 58 62
94 89 94 91 87 61 59 58 63 70 53 51 46 49 54 54 53 50 49 48 46 42 43 41 39 37 36 36 37 38 38 41 43 48 50 50 52 51 49 48 55 57 59 60 62 62 62 60 60
78 75 74 74 62 60 57 59 56 52 52 46 44 47 49 48 48 50 49 46 42 40 40 37 36 36 36 37 39 39 42 45 45 45 45 49 55 54 51 49 51 57 53 52 57 58 59 61 63
66 67 63 62 67 61 58 53 53 46 60 57 54 45 42 43 47 48 48 48 42 40 38 34 33 35 35 37 39 39 40 39 41 44 51 53 56 55 59 56 50 50 54 52 59 62 58 59 58
66 69 63 56 55 58 56 51 46 45 47 46 51 46 43 43 47 44 44 45 39 37 35 32 32 32 34 36 36 37 38 38 40 44 47 52 54 54 60 55 56 49 58 58 55 57 57 51 55
63 65 60 51 55 61 54 60 55 45 43 37 36 37 38 42 44 47 40 40 36 34 32 31 30 30 31 33 35 35 37 38 40 43 44 47 55 58 61 64 57 56 60 60 54 53 49 47 50
63 62 55 49 49 56 62 61 59 42 38 30 34 29 33 40 40 43 45 39 40 35 29 28 29 29 30 31 32 32 35 38 41 47 46 44 47 50 48 53 54 51 58 58 62 57 48 47 44
56 57 57 51 49 53 57 59 52 51 45 36 41 31 33 36 37 36 36 37 36 33 28 28 28 28 29 33 36 37 42 44 44 45 48 48 51 55 60 64 59 54 64 64 65 55 49 44 40
47 53 54 58 56 52 48 51 54 53 49 41 40 32 33 34 36 40 42 37 30 28 28 32 31 30 32 33 37 42 43 42 49 50 51 52 59 59 61 63 56 54 57 61 57 56 49 38 37
40 45 44 53 53 55 51 47 47 47 54 40 44 33 32 36 39 37 38 33 27 31 32 34 30 30 33 38 37 40 47 49 51 54 50 54 61 63 60 53 52 53 53 48 51 57 50 42 34
29 34 41 42 48 53 51 56 53 46 51 51 41 38 30 32 34 36 35 32 32 32 33 34 35 33 34 34 33 39 46 45 50 50 46 51 53 59 55 48 43 44 43 42 43 44 45 42 35
31 29 30 33 33 51 54 55 55 50 51 48 42 34 30 30 32 31 32 31 31 34 32 35 36 34 33 33 33 33 37 43 43 43 43 45 49 46 44 40 39 38 39 41 43 43 41 35 29
30 29 31 34 41 43 50 51 52 51 53 50 37 27 25 24 26 26 29 30 32 36 35 32 34 35 34 33 32 35 39 38 41 38 50 56 49 50 50 47 40 37 42 40 38 34 29 27 21
30 31 30 30 35 42 46 49 51 52 52 42 34 29 27 19 23 27 29 31 34 35 34 31 29 32 33 33 32 30 33 35 39 37 42 43 40 41 50 42 34 34 35 38 30 31 29 21 23
26 27 30 31 35 46 50 49 50 51 44 45 37 32 27 26 21 25 28 30 32 31 31 30 27 28 30 30 30 31 29 26 29 32 34 37 37 37 30 29 29 30 31 31 33 37 31 28 28
20 24 28 28 33 46 54 55 53 52 51 46 43 31 28 26 18 19 23 23 25 26 26 25 24 26 27 28 29 30 30 25 28 29 30 30 35 33 29 27 29 33 37 43 47 45 48 45 42
15 18 26 28 32 46 48 51 56 50 50 46 41 37 33 29 22 21 20 20 21 21 23 24 24 24 24 24 26 26 25 22 25 29 32 34 34 29 28 34 37 45 46 47 49 51 44 46 54
9 16 26 29 32 42 44 48 47 49 44 45 38 42 36 33 28 22 24 24 18 19 20 21 23 23 22 22 23 23 24 23 26 29 37 32 27 31 34 43 42 45 47 49 50 51 48 45 47
8 13 22 28 34 40 38 40 47 48 43 42 42 44 42 39 38 27 25 28 29 29 29 30 32 26 24 22 21 21 20 22 26 31 31 28 27 35 41 47 45 42 44 46 48 51 51 50 50
10 9 18 27 31 29 34 41 37 37 40 38 39 41 45 43 39 31 26 30 34 35 35 33 33 33 26 24 24 22 18 19 26 29 27 25 29 41 46 45 44 39 44 46 46 51 50 46 49
12 9 12 20 30 30 29 41 32 33 35 36 39 39 41 41 43 37 27 30 33 34 35 34 33 34 33 25 24 25 20 19 25 30 27 29 38 43 45 46 41 39 41 42 45 47 49 47 47
11 12 9 13 20 28 28 30 26 31 34 36 38 41 39 38 39 42 41 36 31 31 32 33 31 30 32 30 26 26 22 19 23 28 26 36 46 46 45 45 41 40 42 44 45 46 50 50 48
12 11 12 12 13 18 21 24 25 25 28 31 34 37 38 37 41 41 42 38 36 29 30 34 34 31 30 32 30 27 23 20 22 30 26 36 43 45 45 45 44 47 49 48 43 44 48 48 47
14 13 12 11 11 12 17 14 17 18 26 33 34 33 35 37 39 38 42 44 41 33 31 32 35 35 33 36 36 31 25 23 23 26 31 35 40 45 44 44 46 49 51 53 53 45 46 50 50
14 14 13 13 14 15 11 11 11 16 25 29 31 35 35 37 44 42 39 40 35 30 29 30 32 34 34 35 35 34 27 24 27 24 25 33 41 43 45 48 50 49 50 51 53 50 45 47 51

GFSSGP_prec_cthk_042.txt.gz
RH
81 83 87 87 91 92 89 78 79 81 81 82 82 82 83 85 85 90 88 91 91 92 90 86 81 66 56 49 44 41 38 32 28 33 38 41 43 47 48 49 49 50 53 56 63 69 70 70 67
79 85 85 86 91 89 84 79 78 80 79 78 79 81 81 84 84 84 88 88 89 85 84 85 70 58 51 45 41 38 36 29 29 35 39 40 43 44 46 46 48 47 46 49 54 64 65 65 66
79 83 85 88 88 87 81 72 76 72 72 74 78 79 80 83 82 81 82 83 83 79 80 78 58 51 45 40 39 38 34 30 30 34 38 39 41 44 43 45 48 48 46 49 48 52 56 55 58
77 78 81 85 85 78 74 70 67 65 68 68 69 75 77 78 79 75 76 78 73 72 74 67 49 44 40 39 38 36 33 30 31 35 36 37 40 43 44 46 45 46 49 45 48 53 55 54 60
77 75 76 75 73 74 71 71 64 60 62 64 65 73 76 78 77 73 72 70 67 67 66 55 44 39 38 38 37 34 31 30 34 37 39 42 46 49 52 54 54 56 54 56 57 57 56 58 62
75 74 69 71 68 64 65 68 65 57 57 59 61 67 76 74 71 67 65 62 62 60 54 47 40 37 37 36 35 33 31 35 41 44 50 52 55 56 55 55 54 53 55 57 55 55 57 60 67
72 71 70 70 67 56 60 63 63 52 53 53 54 63 69 70 67 63 61 58 55 53 47 41 37 36 35 35 34 36 36 41 46 52 53 50 46 46 50 51 51 50 51 52 53 58 63 67 68
74 76 74 70 61 58 55 54 54 51 53 49 50 53 58 61 60 60 57 52 48 46 42 40 37 35 34 35 37 39 40 44 45 50 56 53 49 47 48 46 46 47 51 55 58 54 56 60 64
75 75 71 63 60 55 55 58 50 45 49 45 48 43 47 51 54 54 51 47 45 40 38 37 36 35 35 37 40 41 41 44 44 49 54 54 53 52 49 50 50 49 50 56 54 51 47 52 56
68 69 63 56 60 63 55 55 57 47 36 45 49 43 44 47 48 47 45 41 40 36 36 34 34 35 37 39 40 40 40 42 44 52 56 53 52 58 60 55 53 52 49 47 54 58 51 46 45
65 63 59 56 61 60 60 60 55 52 39 29 37 39 40 42 43 42 42 37 35 35 36 35 35 37 39 38 38 37 39 41 43 50 53 62 57 57 56 55 54 56 55 51 51 48 48 44 43
68 63 55 54 58 59 63 65 57 54 43 35 28 28 34 37 38 38 37 35 33 32 34 35 36 37 37 36 36 38 40 40 42 46 47 47 50 53 52 50 54 57 57 56 54 55 60 47 44
64 63 54 52 52 57 60 62 66 59 54 49 39 30 31 35 35 35 36 32 31 31 31 32 32 33 33 32 33 34 36 38 41 46 47 46 47 60 56 56 56 55 59 59 59 56 54 47 45
58 58 53 47 49 55 56 56 62 66 62 62 56 36 31 32 31 33 33 30 28 28 29 30 29 29 29 29 33 34 35 37 42 47 52 52 54 57 55 60 56 58 52 50 54 56 55 48 44
48 55 51 47 48 50 53 59 59 65 64 68 62 49 31 31 31 32 29 29 26 25 27 28 27 29 30 31 32 33 36 41 45 47 55 58 59 60 59 55 52 50 51 47 44 44 44 43 39
43 49 52 46 43 47 54 60 59 61 64 71 64 56 36 31 31 31 28 27 26 27 28 27 29 29 29 31 35 37 42 46 49 52 55 60 57 59 57 52 48 44 42 41 42 40 39 41 40
34 38 44 43 42 43 45 51 53 56 56 64 59 54 44 31 31 30 28 27 27 30 31 27 27 26 27 29 36 37 43 47 48 52 51 50 50 51 52 50 46 43 41 40 41 40 36 38 42
30 32 35 38 41 37 42 44 48 58 52 54 54 52 46 29 25 27 29 28 28 31 30 27 26 27 26 27 33 36 41 40 43 45 45 49 49 52 52 52 46 41 39 38 38 41 44 44 42
25 30 35 39 37 38 42 42 50 56 52 52 58 52 44 30 22 28 29 29 31 32 32 31 29 29 27 27 32 36 34 36 37 40 43 45 48 47 45 47 42 39 34 38 47 51 50 49 39
25 26 30 36 36 34 36 40 48 52 48 50 53 57 47 38 26 24 27 28 29 29 29 31 29 29 26 30 34 36 37 36 36 37 38 38 38 40 42 40 38 31 42 49 51 54 53 46 39
22 25 27 33 37 37 37 38 46 51 48 49 50 52 53 42 38 24 23 23 23 27 27 27 28 29 30 30 33 34 35 34 33 30 30 31 33 36 37 36 29 45 50 51 54 57 54 44 41
19 21 26 31 35 34 36 44 42 46 50 46 47 49 48 40 34 31 25 22 19 20 24 26 27 28 28 31 32 31 28 28 27 27 28 29 30 32 29 29 41 51 50 49 52 53 56 46 42
14 18 24 29 34 35 31 39 32 44 52 46 43 38 38 38 37 28 22 19 16 16 19 21 24 27 27 27 29 29 28 27 28 29 28 26 28 31 28 34 47 51 50 48 48 50 54 51 41
11 15 20 27 30 33 28 30 28 36 39 50 42 34 40 39 36 30 25 20 22 18 17 19 21 22 25 26 27 27 26 25 27 27 28 26 28 29 31 39 47 49 49 46 47 49 49 47 46
11 14 20 23 30 23 24 33 18 25 30 34 34 32 33 36 38 37 30 26 25 27 25 17 19 20 23 25 26 26 26 25 26 25 24 25 26 29 32 44 47 47 46 44 48 49 48 46 43
12 13 20 22 24 19 24 23 19 19 28 35 34 42 40 37 43 48 46 29 24 25 28 29 21 20 22 22 25 28 28 26 25 26 24 24 25 31 37 40 44 45 45 46 45 46 47 48 46
14 16 11 14 17 18 20 18 16 19 23 31 35 38 35 32 40 42 47 39 28 25 26 28 32 30 27 26 26 32 34 30 25 22 24 25 26 31 37 41 43 43 46 45 43 44 44 46 47
14 12 16 16 18 19 16 15 16 16 20 26 32 33 31 35 40 42 44 43 33 32 28 30 34 37 34 34 30 30 33 33 27 24 22 22 25 31 38 42 44 43 47 45 42 41 42 43 46
18 17 16 14 16 16 17 14 11 12 13 19 25 32 32 31 35 38 41 45 39 36 34 33 32 35 35 33 30 29 32 36 35 26 23 22 25 28 38 41 44 44 45 44 42 39 40 41 42
18 16 16 18 17 16 15 13 9 8 9 15 23 31 29 28 29 32 36 42 46 43 44 34 32 37 33 32 33 30 31 35 37 31 23 22 25 25 34 39 44 45 43 44 44 41 38 40 43

GFSSGP_prec_cthk_045.txt.gz
RH
76 79 83 86 93 89 82 79 83 81 79 81 80 81 80 84 85 90 90 94 96 94 89 89 83 71 53 43 41 36 30 30 35 38 40 43 46 48 48 48 49 52 57 67 69 70 70 68 61
77 80 84 84 87 87 82 80 79 77 79 80 80 81 82 85 85 87 89 94 92 88 86 80 67 51 43 41 39 34 28 31 36 38 39 41 44 45 45 47 46 46 49 53 63 62 65 71 71
75 82 82 85 80 80 75 75 74 75 77 77 80 80 82 85 83 86 88 89 85 83 83 66 52 45 44 40 38 33 27 31 35 38 38 40 42 43 45 48 49 47 49 47 52 54 54 59 62
73 79 84 82 73 71 71 71 68 72 71 72 75 79 81 83 81 81 83 83 80 78 75 56 46 44 41 39 37 31 28 31 34 35 36 38 41 43 47 47 51 60 50 53 56 55 57 64 67
75 74 74 74 68 70 71 66 65 64 62 65 70 73 78 81 78 77 77 75 70 72 65 48 43 40 39 37 34 29 30 33 35 36 38 42 47 52 54 55 62 57 56 57 54 55 57 68 74
74 71 67 61 60 62 69 63 60 59 60 61 65 69 77 77 72 70 71 69 65 65 55 44 39 37 37 35 31 30 32 36 40 43 47 52 55 55 55 53 54 56 57 54 58 60 63 65 69
70 68 66 65 62 56 65 60 57 55 55 56 61 65 71 73 68 67 65 62 60 56 48 43 35 35 34 32 32 33 36 42 47 53 51 49 47 50 50 49 49 52 54 54 57 62 63 64 66
72 69 60 56 59 55 57 58 56 56 51 52 56 60 65 66 65 63 60 57 56 50 42 35 33 33 33 33 35 37 40 45 50 51 51 48 47 47 46 47 48 50 53 56 52 53 59 59 63
71 70 63 57 54 52 51 47 47 46 48 49 50 49 56 60 61 59 56 53 50 45 39 34 32 32 33 35 38 39 41 44 47 54 53 50 51 50 49 50 48 51 57 58 54 51 49 48 55
73 66 57 55 53 55 53 50 47 42 43 49 49 45 50 54 55 55 51 47 45 41 36 33 31 33 35 37 38 39 41 44 46 51 53 53 55 57 55 52 53 53 56 54 55 55 50 47 46
69 61 55 57 58 57 57 51 50 44 35 38 42 45 45 49 50 50 48 44 40 35 35 32 33 34 35 37 38 38 40 43 47 52 54 54 56 56 55 56 56 56 55 53 52 52 50 46 45
64 63 59 58 56 54 58 55 55 51 41 33 34 38 41 43 44 45 43 42 38 31 30 31 32 34 36 36 37 37 38 40 42 50 50 51 51 50 50 53 57 57 57 59 56 59 56 49 46
65 64 61 54 54 53 57 58 60 58 52 50 33 35 39 40 40 42 42 38 33 30 30 31 33 34 34 35 36 36 38 39 40 44 44 46 47 54 54 56 54 54 58 59 61 56 53 53 49
55 62 56 51 48 50 50 55 64 62 59 56 53 29 35 38 38 39 40 35 31 29 30 32 33 34 33 33 32 34 36 38 40 44 46 47 48 52 53 59 58 53 52 50 48 55 50 49 46
47 51 44 46 47 49 51 54 55 59 62 61 61 45 30 35 36 37 37 32 29 28 28 29 30 31 29 29 31 32 33 35 40 47 52 52 56 55 55 53 52 50 47 45 43 47 52 48 47
38 44 49 46 46 48 56 54 58 54 68 58 60 56 39 30 33 36 37 31 29 27 26 27 27 27 28 29 30 32 33 35 41 47 54 56 53 52 53 53 49 43 43 47 48 42 41 41 40
31 35 43 45 46 47 53 52 52 55 54 57 60 55 46 33 30 32 34 31 27 25 25 25 26 27 28 30 31 33 37 40 45 46 46 51 51 50 51 51 49 45 42 42 43 43 44 46 45
26 36 37 42 42 43 47 47 46 51 47 52 57 57 48 39 26 29 32 31 26 25 25 26 27 27 28 29 30 33 36 41 43 44 45 47 47 47 51 52 48 44 41 41 43 47 48 46 45
23 32 41 40 38 41 41 42 43 48 46 48 54 54 51 39 25 29 32 30 31 29 29 27 26 23 25 26 28 31 31 35 39 39 41 42 46 46 45 44 43 41 46 45 53 50 51 50 44
23 26 36 36 35 35 38 40 42 47 40 47 53 55 53 44 25 26 28 31 29 26 27 25 24 23 22 22 24 26 30 32 34 35 38 38 39 40 39 40 38 40 42 51 53 52 52 51 41
22 22 25 34 34 34 36 37 41 45 46 40 48 53 56 45 33 24 25 26 27 26 26 24 23 22 24 25 26 28 30 34 35 33 31 32 34 36 36 37 35 43 48 51 51 53 52 49 41
17 21 23 27 32 34 36 32 39 40 47 46 39 46 49 47 41 31 23 23 22 22 26 26 27 25 24 25 24 25 27 30 30 29 27 28 29 32 32 33 32 48 49 50 48 50 51 48 42
12 16 22 26 29 32 31 32 26 36 41 43 36 34 42 42 38 33 28 18 17 18 21 24 26 27 27 27 27 26 27 27 29 28 26 27 28 31 31 30 41 46 48 48 45 46 50 49 42
11 14 18 22 27 29 25 27 23 31 30 37 45 35 34 36 36 37 32 26 19 19 20 22 24 26 27 27 26 26 27 27 28 27 26 26 27 27 25 30 43 46 48 46 46 47 46 45 43
12 14 17 21 23 21 21 25 19 22 26 29 41 46 25 32 36 33 33 29 22 19 16 17 19 22 24 25 25 25 26 27 27 27 28 26 27 23 22 29 46 46 46 46 48 46 43 43 41
13 12 12 17 15 15 20 18 16 20 24 28 34 39 26 32 34 33 33 33 26 19 18 17 15 17 20 23 24 24 25 25 27 28 27 26 26 23 23 31 44 44 45 47 48 44 44 44 43
14 15 9 11 14 13 13 13 13 16 20 28 31 27 26 29 34 36 37 38 33 27 24 24 25 23 18 19 22 24 26 26 25 27 26 26 28 25 24 33 41 42 43 46 45 42 42 44 44
13 13 15 15 16 14 11 13 10 11 14 21 22 26 28 29 35 36 37 39 37 33 26 26 30 31 31 25 22 23 22 26 27 28 27 25 25 27 27 32 38 40 42 44 44 42 39 40 43
16 17 15 14 12 12 11 8 9 9 9 15 20 26 33 28 24 34 38 40 44 39 33 29 29 34 38 37 34 29 26 26 29 31 29 26 24 25 28 30 37 39 40 42 46 42 40 39 38
18 17 17 16 19 12 11 9 8 8 9 11 16 24 29 29 33 35 33 37 41 42 36 31 34 34 35 36 37 34 30 28 29 31 29 29 25 24 27 28 34 38 40 41 43 44 41 39 38

GFSSGP_prec_cthk_048.txt.gz
RH
74 79 84 88 91 84 78 76 73 74 74 74 76 77 78 81 85 89 94 98 94 92 91 84 75 59 45 42 38 34 35 39 40 42 46 48 48 49 52 54 57 62 70 72 71 71 69 62 56
78 83 86 83 86 80 76 72 71 72 73 74 76 76 76 84 87 86 91 94 92 92 87 82 63 49 43 38 32 29 34 36 38 41 45 46 48 47 47 46 47 50 55 64 61 63 69 67 60
77 84 82 82 80 76 73 69 68 70 71 74 74 77 78 81 83 86 93 90 89 87 88 69 53 43 40 35 29 28 34 36 39 41 42 44 45 46 49 49 46 49 47 52 54 54 59 61 55
80 88 85 86 71 68 67 65 66 67 71 73 73 76 79 80 82 84 88 88 86 84 77 54 42 40 38 35 29 29 34 38 38 39 41 43 43 46 47 53 58 52 57 60 58 59 66 71 69
80 82 80 76 67 67 64 60 65 64 64 68 71 75 80 81 79 80 82 80 81 76 63 48 41 39 37 34 29 29 32 35 35 37 40 44 49 53 56 67 58 57 57 55 57 61 71 73 73
76 73 67 65 63 63 61 57 61 57 56 63 68 73 81 79 76 76 75 75 75 70 55 47 39 37 36 32 28 29 32 35 38 41 46 52 54 55 54 54 56 57 55 60 63 65 68 67 63
74 70 64 58 59 61 60 56 58 53 54 59 66 72 77 74 72 71 70 70 70 63 53 46 41 36 34 30 29 31 36 40 46 50 53 51 51 50 51 50 53 53 55 58 61 62 62 65 63
71 69 62 55 60 54 55 58 55 49 52 55 62 69 70 69 65 66 65 65 65 57 50 46 40 40 37 31 32 35 41 45 48 46 45 45 48 47 48 48 51 52 54 51 51 53 55 58 56
72 69 63 57 60 57 48 46 43 48 48 51 55 61 63 66 63 61 60 61 58 53 47 44 40 38 37 39 37 38 42 43 48 47 47 49 58 54 55 50 53 54 55 54 51 47 48 46 48
67 68 59 49 45 53 46 47 39 41 46 47 51 54 60 63 62 59 55 54 51 48 43 41 41 39 38 44 42 43 45 47 50 52 53 58 57 57 56 56 53 54 53 53 52 49 46 50 56
62 61 50 50 50 46 50 50 44 42 41 44 46 45 52 57 59 58 54 52 46 43 40 40 41 40 39 43 42 44 45 49 48 50 54 55 55 61 63 59 59 59 55 64 60 62 60 53 55
61 58 57 56 53 50 53 56 52 45 39 36 41 44 46 51 53 54 51 48 45 40 39 39 39 38 40 39 40 45 48 46 49 52 50 55 54 53 57 61 60 60 66 67 65 71 64 57 51
59 60 56 56 54 49 50 54 61 56 45 37 31 37 43 46 49 50 48 44 40 39 40 40 38 39 39 37 40 44 46 45 49 49 47 47 49 55 59 65 59 59 65 68 62 68 64 61 56
55 60 61 57 52 50 50 52 55 53 51 47 37 31 38 41 42 46 46 42 39 38 38 39 38 39 38 37 37 41 42 43 41 43 45 44 46 55 64 66 61 58 57 57 61 57 60 52 51
52 57 58 51 50 47 46 51 54 56 53 53 49 38 35 40 41 40 42 40 39 37 37 36 37 37 37 34 33 38 41 41 42 44 45 46 45 50 57 58 56 54 53 58 58 55 57 55 45
37 44 47 45 45 44 51 57 51 52 62 52 50 48 38 36 37 37 40 38 38 37 37 35 36 37 35 34 31 35 36 39 42 46 49 48 49 49 51 54 54 52 52 54 53 54 63 41 41
27 41 40 46 45 48 55 57 56 55 53 48 50 51 45 39 33 34 37 36 35 33 33 34 34 35 33 30 32 33 34 33 39 46 48 48 47 49 49 52 53 48 50 48 44 50 45 48 46
27 33 42 46 44 47 54 55 54 54 49 52 53 54 48 42 29 31 34 35 34 33 31 32 32 32 32 32 28 34 35 35 37 42 45 44 43 45 44 50 49 47 54 49 46 53 51 52 47
28 28 37 42 44 44 47 50 49 48 51 42 48 50 48 45 35 30 32 33 33 33 29 29 30 29 30 30 31 32 34 35 37 39 41 40 42 43 43 46 42 41 52 50 53 54 56 56 46
23 23 31 40 39 37 41 44 45 43 50 41 48 50 50 46 37 25 29 31 29 30 26 26 26 27 26 28 28 29 32 32 34 37 38 36 37 41 41 47 46 41 47 51 54 52 57 51 40
22 22 23 36 39 34 35 38 42 41 42 45 44 46 52 47 43 27 25 26 28 28 24 26 26 26 23 26 29 28 29 30 32 35 34 33 32 33 35 44 41 39 46 58 54 50 50 54 41
16 22 23 30 36 35 34 36 40 40 44 45 42 43 42 44 45 37 23 25 26 25 24 27 28 26 26 23 27 26 26 29 32 33 35 32 30 31 33 40 37 44 48 52 53 48 50 46 48
11 17 23 25 30 34 31 30 29 37 39 42 44 37 39 38 41 39 29 20 23 24 25 26 27 24 25 23 25 26 25 27 33 34 32 27 28 25 29 32 36 42 45 48 46 45 45 47 46
11 12 18 24 24 26 23 26 23 28 33 36 41 39 33 36 38 39 35 29 22 24 25 26 25 21 23 22 21 23 25 26 30 32 32 32 30 31 26 28 29 44 44 44 44 43 41 44 43
11 13 15 20 22 20 20 23 20 25 26 30 32 38 37 32 32 37 38 34 26 22 22 21 21 20 21 22 22 22 23 24 28 29 29 30 30 31 31 24 28 41 40 42 43 42 40 39 39
12 12 11 18 16 17 19 18 17 20 22 24 30 34 37 36 29 30 34 31 30 25 19 18 18 17 19 20 20 22 23 25 28 28 28 28 29 31 31 24 27 37 42 39 42 40 40 40 40
14 14 10 11 12 14 13 14 14 15 18 21 24 30 36 34 25 31 33 34 33 31 23 17 15 14 16 17 18 20 22 24 25 25 25 28 27 28 31 25 25 35 38 38 42 42 39 38 38
15 13 11 10 14 15 11 11 13 12 14 18 22 26 33 33 25 28 31 33 34 34 30 25 21 16 14 16 17 18 19 22 24 26 25 27 26 23 29 27 26 34 38 39 41 43 40 37 37
16 16 14 12 11 13 14 10 10 10 12 14 19 25 31 27 21 28 34 37 38 39 36 33 29 27 27 27 28 25 21 22 23 24 25 25 26 24 22 25 24 31 38 38 40 42 42 37 35
17 16 14 14 16 12 10 10 9 8 8 12 15 22 22 24 25 31 34 38 39 37 37 36 31 30 30 30 35 33 29 23 19 18 22 25 27 26 24 21 24 27 36 38 37 38 42 40 36